Weather History for Aspen, CO

Change the Weather History Date:

Tuesday, June 25, 2013

  Actual Average Record
Temperature  
Mean Temperature 62 °F 60 °F  
Max Temperature 77 °F 77 °F 90 °F (2012)
Min Temperature 46 °F 43 °F 33 °F (1993)
Degree Days  
Heating Degree Days 3 5  
Month to date heating degree days 144 209  
Since 1 June heating degree days 144 209  
Since 1 July heating degree days 8585 8854  
Cooling Degree Days 0 0  
Month to date cooling degree days 4 0  
Year to date cooling degree days 4 0  
Since 1 June cooling degree days 4 0  
Growing Degree Days 12 (Base 50)    
Moisture  
Dew Point 29 °F    
Average Humidity 36    
Maximum Humidity 56    
Minimum Humidity 16    
Precipitation  
Precipitation 0.00 in 0.05 in 0.70 in (1983)
Month to date precipitation 0.09 0.96  
Year to date precipitation 6.77 7.90  
Sea Level Pressure  
Sea Level Pressure 29.82 in    
Wind  
Wind Speed 8 mph (WNW)    
Max Wind Speed 20 mph    
Max Gust Speed 33 mph    
Visibility 10 miles    
Events      
T = Trace of Precipitation, MM = Missing Value Source: NWS Daily Summary

Daily Weather History Graph

Daily Weather History Graph

Search for Another Location

Airport:

Trip Planner

Search our weather history database for the weather conditions in past years. The results will help you decide how hot, cold, wet, or windy it might be!

Date:

Astronomy

Jun. 25, 2013 Rise Set
Actual Time 5:42 AM MDT 8:37 PM MDT
Civil Twilight 5:10 AM MDT 9:10 PM MDT
Nautical Twilight 4:29 AM MDT 9:50 PM MDT
Astronomical Twilight 3:42 AM MDT 10:37 PM MDT
Moon 10:26 PM MDT (6/25) 8:24 AM MDT (6/25)
Length of Visible Light 15h 59m
Length of Day
14h 55m
Waning Gibbous, 92% of the Moon is Illuminated
Jun 25
Waning Gibbous
Jun 29
Last Quarter
Jul 8
New
Jul 15
First Quarter
Jul 22
Full

Hourly Weather History & Observations

Time (MDT) Temp. Dew Point Humidity Pressure Visibility Wind Dir Wind Speed Gust Speed Precip Events Conditions
12:53 AM 63.0 °F 23.0 °F 22% 29.69 in 10.0 mi SE 8.1 mph 24.2 mph N/A   Clear
1:53 AM 55.9 °F 27.0 °F 33% 29.70 in 10.0 mi South 4.6 mph - N/A   Clear
2:53 AM 52.0 °F 26.1 °F 37% 29.73 in 10.0 mi Variable 5.8 mph - N/A   Partly Cloudy
3:53 AM 50.0 °F 26.1 °F 39% 29.75 in 10.0 mi Variable 3.5 mph - N/A   Clear
4:53 AM 48.0 °F 26.1 °F 42% 29.78 in 10.0 mi Calm Calm - N/A   Clear
5:53 AM 48.9 °F 27.0 °F 43% 29.81 in 10.0 mi South 5.8 mph - N/A   Mostly Cloudy
6:53 AM 50.0 °F 28.9 °F 44% 29.83 in 10.0 mi South 6.9 mph - N/A   Partly Cloudy
7:53 AM 48.9 °F 33.1 °F 54% 29.86 in 10.0 mi South 3.5 mph - N/A   Clear
8:53 AM 64.0 °F 27.0 °F 25% 29.81 in 10.0 mi NE 5.8 mph - N/A   Clear
9:53 AM 68.0 °F 27.0 °F 21% 29.81 in 10.0 mi North 9.2 mph - N/A   Clear
10:53 AM 70.0 °F 28.0 °F 21% 29.81 in 10.0 mi North 12.7 mph 21.9 mph N/A   Partly Cloudy
11:53 AM 71.1 °F 28.0 °F 20% 29.81 in 10.0 mi NNW 11.5 mph 19.6 mph N/A   Clear
12:53 PM 75.0 °F 28.9 °F 18% 29.79 in 10.0 mi NNW 13.8 mph 20.7 mph N/A   Partly Cloudy
1:53 PM 73.9 °F 28.0 °F 18% 29.82 in 10.0 mi North 11.5 mph 24.2 mph N/A   Clear
2:53 PM 75.9 °F 28.9 °F 18% 29.83 in 10.0 mi North 15.0 mph 20.7 mph N/A   Partly Cloudy
3:53 PM 77.0 °F 28.0 °F 17% 29.83 in 10.0 mi NNW 12.7 mph 21.9 mph N/A   Clear
4:53 PM 77.0 °F 28.0 °F 17% 29.84 in 10.0 mi NW 9.2 mph 16.1 mph N/A   Clear
5:53 PM 75.9 °F 28.0 °F 17% 29.83 in 10.0 mi North 8.1 mph - N/A   Clear
6:53 PM 75.0 °F 28.0 °F 18% 29.84 in 10.0 mi North 9.2 mph - N/A   Clear
7:53 PM 64.9 °F 32.0 °F 29% 29.91 in 10.0 mi Calm Calm - N/A   Clear
8:53 PM 61.0 °F 34.0 °F 36% 29.88 in 10.0 mi SW 9.2 mph - N/A   Clear
9:53 PM 54.0 °F 34.0 °F 47% 29.93 in 10.0 mi SSW 6.9 mph - N/A   Clear
10:53 PM 55.9 °F 30.9 °F 39% 29.94 in 10.0 mi SSW 9.2 mph - N/A   Clear
11:53 PM 52.0 °F 32.0 °F 47% 29.95 in 10.0 mi SSW 6.9 mph - N/A   Clear